Regional Weather Roundup
Issued by NWS

Home | Current Version | Previous Version | Graphics & Text | Print | Product List | Glossary On
Versions: 1 2 3 4 5 6 7 8 9 10 11 12 13 14 15 16 17 18 19 20 21 22 23 24 25 26 27 28 29 30 31 32 33 34 35 36 37 38 39 40 41 42 43 44 45 46 47 48 49 50
000
ASUS43 KFSD 030502
RWRSD

WEATHER ROUNDUP FOR SOUTH DAKOTA
NATIONAL WEATHER SERVICE SIOUX FALLS SD
1200 AM CDT MON AUG 03 2015

NOTE: "FAIR" INDICATES FEW OR NO CLOUDS BELOW 12,000 FEET WITH NO
SIGNIFICANT WEATHER AND/OR OBSTRUCTIONS TO VISIBILITY.


SDZ001>005-009-010-012>017-030600-
NORTHWEST AND NORTH CENTRAL SOUTH DAKOTA

CITY           SKY/WX    TMP DP  RH WIND       PRES   REMARKS
BUFFALO          N/A     64  51  62 NE8       29.98S
FAITH            N/A     64  48  56 E8        30.01S
MOBRIDGE       CLEAR     59  56  89 N5        29.96R
$$

SDZ012>016-024>037-041>051-057-063-072>074-030600-
SOUTHWEST AND SOUTH CENTRAL SOUTH DAKOTA

CITY           SKY/WX    TMP DP  RH WIND       PRES   REMARKS
RAPID CTY ARPT CLEAR     66  53  63 NE3       30.03S
PIERRE         CLEAR     63  53  70 NE9       29.96R
CUSTER         CLEAR     63  49  60 NE5       30.17S
PHILIP         CLEAR     66  55  67 E5        29.98S
PINE RIDGE     CLEAR     64  57  78 E9        30.02S
WINNER         FAIR      69  59  70 SE5       29.97R
$$

SDZ004>011-016>023-039-040-030600-
NORTHEAST SOUTH DAKOTA

CITY           SKY/WX    TMP DP  RH WIND       PRES   REMARKS
ABERDEEN       CLEAR     63  55  75 N3        29.94R
WATERTOWN      CLEAR     63  56  78 CALM      29.94S
BROOKINGS      CLEAR     63  55  77 CALM      29.95S
SISSETON         N/A     60  51  72 W7        29.90S
$$

SDZ017-020-022-023-036>040-048>070-030600-
SOUTHEAST SOUTH DAKOTA

CITY           SKY/WX    TMP DP  RH WIND       PRES   REMARKS
SIOUX FALLS    CLEAR     65  58  78 CALM      29.93R
HURON          CLEAR     62  59  90 W3        29.93R
CHAMBERLAIN    CLEAR     69  57  65 NE5       29.96R
MITCHELL       CLEAR     65  59  81 CALM      29.94R
YANKTON        CLEAR     68  59  73 N7        29.93R
$$

ABBREVIATIONS USED IN REMARKS
   TC - TEMPERATURE IN CELSIUS
  WCI - WIND CHILL INDEX
   HX - HEAT INDEX
  VSB - VISIBILITY



USA.gov is the U.S. government's official web portal to all federal, state and local government web resources and services.